Flag for Canada Weather past 2 weeks in Belleville, Ontario, Canada

Now
86 °F

Partly sunny.


Feels Like: 86 °F
Forecast: N/A
Wind: 7 mph from Southwest

Location: Trenton

Current Time: Jul 29, 2015 at 6:35:19 PM

Latest Report: Jul 29, 2015 at 6:00 PM


Visibility: 15 mi

Pressure: 29.87 "Hg

Humidity: 43%

Dew point: 61 °F

Location of BellevilleLocation

Historic Weather in Belleville — Graph

°F

Belleville temperature yesterday

Maximum temperature yesterday: 84 °F (at 2:00 PM)
Minimum temperature yesterday: 64 °F (at 5:00 AM)
Average temperature yesterday: 75 °F

Past Weeks' High & Low Weather Summary

 TemperatureHumidityPressure
High86 °F (Jul 29, 1:00 PM)100% (Jul 17, 11:48 PM)30.15 "Hg (Jul 17, 11:48 PM)
Low48 °F (Jul 17, 4:00 AM)39% (Jul 24, 7:00 PM)29.51 "Hg (Jul 14, 5:00 PM)
Average70 °F71%29.87 "Hg
* Reported Jul 14 5:00 PM — Jul 29 5:00 PM, Belleville, Weather by CustomWeather, © 2015

Note: Actual official high and low records may vary slightly from our data, if they occured in-between our weather recording intervals... More about our weather records

Advertising

Belleville weather history for previous 24 hours

 ConditionsComfort  
Time TempWeatherWind HumidityBarometerVisibility
5:00 PM
Wed, Jul 29
86 °FPartly sunny.8 mph49%29.88 "Hg15 mi
4:00 PM86 °FPassing clouds.10 mph49%29.90 "Hg15 mi
3:00 PM86 °FPassing clouds.9 mph52%29.92 "Hg15 mi
2:00 PM84 °FPassing clouds.9 mph51%29.93 "Hg15 mi
1:00 PM86 °FScattered clouds.10 mph43%29.94 "Hg15 mi
12:00 PM84 °FBroken clouds.7 mph43%29.95 "Hg15 mi
11:00 AM82 °FBroken clouds.6 mph51%29.96 "Hg15 mi
10:00 AM79 °FBroken clouds.3 mph70%29.96 "Hg15 mi
9:00 AM75 °FPartly sunny.2 mph74%29.97 "Hg15 mi
8:00 AM72 °FPartly sunny.3 mph83%29.96 "Hg15 mi
7:00 AM66 °FPartly sunny.No wind88%29.96 "Hg15 mi
6:00 AM64 °FPassing clouds.No wind88%29.96 "Hg15 mi
5:00 AM64 °FPassing clouds.No wind94%29.97 "Hg15 mi
4:00 AM64 °FPassing clouds.No wind94%29.98 "Hg15 mi
3:00 AM66 °FPassing clouds.No wind88%29.97 "Hg15 mi
2:00 AM68 °FPassing clouds.2 mph88%29.97 "Hg15 mi
1:00 AM66 °FPassing clouds.No wind88%29.98 "Hg15 mi
12:00 AM70 °FPassing clouds.3 mph78%29.97 "Hg15 mi
11:00 PM
Tue, Jul 28
70 °FPassing clouds.No wind83%29.97 "Hg15 mi
10:00 PM73 °FPassing clouds.No wind74%29.96 "Hg15 mi
9:00 PM77 °FPartly sunny.3 mph61%29.95 "Hg15 mi
8:00 PM81 °FPartly sunny.7 mph54%29.95 "Hg15 mi
7:00 PM82 °FPartly sunny.10 mph48%29.95 "Hg15 mi
6:00 PM82 °FPassing clouds.12 mph48%29.96 "Hg15 mi
Weather by CustomWeather, © 2015

See weather overviewHow to use our weather pages